Tracking 29495 objects as of 7-Sep-2024
HD Live streaming from Space Station
objects crossing your sky now

COSMOS 2491 DEB

Track COSMOS 2491 DEB now!
10-day predictions


NORAD ID: 44998
Int'l Code: 2013-076T
Perigee: 1,354.7 km
Apogee: 1,467.5 km
Inclination: 82.5 °
Period: 113.9 minutes
Semi major axis: 7782 km
RCS: Unknown
Launch date: December 25, 2013
Source: Commonwealth of Independent States (former USSR) (CIS)
Launch site: PLESETSK MISSILE AND SPACE COMPLEX (PKMTR)

Note: This is SATELLITE DEBRIS
Your satellite tracking list
Your tracking list is empty




NASA's NSSDC Master Catalog

Two Line Element Set (TLE):
1 44998U 13076S   24250.54206131  .00004173  00000-0  22331-1 0  9993
2 44998  82.4735 173.7518 0072521 192.7147 167.2118 12.64614048215195
Source of the keplerian elements: AFSPC